Location: Eitze
(52.9840°N, 9.6894°E)
Time: 10:45:24
(UTC+00:00)

USA 229 DEB - Pass Details

Date: 19 May 2025
Orbit: 872 x 1339 km, 63.4° (Epoch: 20 June)

Event Time Altitude Azimuth Distance (km) Brightness Sun altitude
Exits shadow 23:20:43 24° 205° (SSW) 1,881 4.5 -17.0°
Maximum altitude 23:24:39 67° 129° (SE) 1,078 3.6 -17.0°
Drops below altitude 10° 23:31:27 10° 49° (NE) 2,939 6.6 -17.0°
Sets 23:34:17 0° 47° (NE) 3,972 7.4 -16.9°
